sat.trackr.live / text

‹ back to catalog

KINEIS-5D

NORAD 62082 · 2024-219B

PAYLOAD ACTIVE UNKNOWN

§ Identity

Operator
Country
FR
Launch date
2024-11-25
Launch site
RLLB
Launch vehicle
Mass (kg)
RCS (m²)

External: N2YO · Heavens-Above · Gunter

§ Orbital elements

Epoch: 2026-09-22T22:33:40.001184Z

Period
97.79 min
Inclination
97.9272°
Eccentricity
0.0004145
Mean motion
14.72592738 rev/d
Perigee alt
649.9 km
Apogee alt
655.7 km
Semi-major
7,030.9 km
B*
1.0035e-4
RAAN
62.3353°
Arg perigee
333.6298°
Mean anomaly
26.4698°
Rev number
9,814

§ Raw data

KINEIS-5D1 62082U 24219B   26265.94004631  .00000590  00000+0  10035-3 0  99992 62082  97.9272  62.3353 0004145 333.6298  26.4698 14.72592738 98141

JSON: /api/v1/satellites/62082 · /tle

For live sub-satellite position, see the globe view (requires WebGL).

§ Visibility from observer

Set your observer location to see the next 7 days of passes ≥ 10°. The values pass through the URL so the page stays shareable.

No JS? Fill the form by hand. The geolocation button needs JavaScript.

§ Radio — SatNOGS DB

ModeDescriptionDownlinkUplink
FM S-band telemetry 2.265 GHz

1 transmitter · refreshed weekly from db.satnogs.org